Погода в Марково

Россия / Чукотский автономный округ     64°40′53″N   170°24′25″E
темп.,
°C
ветер,
м/с
пор.,
м/с
влажн.,
%
обл.,
%
осадки,
мм/ч
давл.,
гПа
погр.,
м
27 февраля, сб
сб2700:00−34с33860 0.0 103122
03:00−34с34860 0.0 103125
06:00−34с23850 0.0 103120
09:00−34ссз22850 0.0 103019
12:00−30ссз22860 0.0 103170
15:00−30ссз22860 0.0 102933
18:00−33с22840 0.0 103019
21:00−34ссз11860 0.0 103019
28 февраля, вс
вс2800:00−35сз11870 0.0 103019
03:00−35юз11880 0.0 103019
06:00−36ююз11880 0.0 103019
09:00−35ю11870 0.0 103019
12:00−31ю11860 0.0 103129
15:00−31св01880 0.0 103019
18:00−35ссв11890 0.0 103019
21:00−35ссв23860 0.0 103019
1 марта, пн
пн100:00−35с33870 0.0 102922
03:00−34с59860 0.0 1026137
06:00−32ссв714820 0.0 1024268
09:00−31ссв9158034 0.0 1022300
12:00−28ссв7138167 0.0 1019359
15:00−26ссв61181100 0.0 1016315
18:00−27ссв4783100 0.0 1015120
21:00−28ссв347894 0.0 101528
2 марта, вт
вт200:00−27ссз337896 0.0 101532
03:00−28сз237793 0.0 101522
06:00−29зсз337781 0.0 101528
09:00−29з22770 0.0 101622
12:00−25зюз11790 0.0 101742
15:00−25ююз12810 0.0 101823
18:00−30ююз11800 0.0 101919
21:00−31з00770 0.0 102119
3 марта, ср
ср300:00−32зсз00770 0.0 102319
03:00−32юз11760 0.0 102419
06:00−33ююз11770 0.0 102619
09:00−33ююз00770 0.0 102619
12:00−29юз00800 0.0 102744
15:00−29св11850 0.0 102719
18:00−32ссв22847 0.0 102719
21:00−33ссв338750 0.0 102725